Change the Weather History Date:

Saturday, December 28, 2013

  Actual Average Record
Temperature  
Mean Temperature 27 °F 17 °F  
Max Temperature 40 °F 30 °F 56 °F (1917)
Min Temperature 14 °F 5 °F -35 °F (1983)
Degree Days  
Heating Degree Days 38 48  
Month to date heating degree days 1348 1329  
Since 1 July heating degree days 3608 3819  
Cooling Degree Days 0 0  
Month to date cooling degree days 0 0  
Year to date cooling degree days 104 81  
Moisture  
Dew Point 19 °F    
Average Humidity 61    
Maximum Humidity 88    
Minimum Humidity 34    
Precipitation  
Precipitation T in 0.02 in 0.33 in (2008)
Month to date precipitation 0.22 0.46  
Year to date precipitation 11.32 12.72  
Sea Level Pressure  
Sea Level Pressure 30.23 in    
Wind  
Wind Speed 4 mph (NW)    
Max Wind Speed 20 mph    
Max Gust Speed 25 mph    
Visibility 8 miles    
Events Snow    
T = Trace of Precipitation, MM = Missing Value Source: NWS Daily Summary

Daily Weather History Graph

Daily Weather History Graph

Search for Another Location

Airport or City:

Trip Planner

Search our weather history database for the weather conditions in past years. The results will help you decide how hot, cold, wet, or windy it might be!

Date:

Astronomy

Dec. 28, 2013 Rise Set
Actual Time 8:11 AM MST 4:52 PM MST
Civil Twilight 7:36 AM MST 5:26 PM MST
Nautical Twilight 6:58 AM MST 6:04 PM MST
Astronomical Twilight 6:22 AM MST 6:41 PM MST
Moon 3:45 AM MST (12/28) 1:52 PM MST (12/28)
Length of Visible Light 9h 49m
Length of Day
8h 40m
Waning Crescent, 18% of the Moon is Illuminated
Dec 28
Waning Crescent
Jan 1
New
Jan 7
First Quarter
Jan 15
Full
Jan 23
Last Quarter

Hourly Weather History & Observations

Time (MST) Temp. Windchill Dew Point Humidity Pressure Visibility Wind Dir Wind Speed Gust Speed Precip Events Conditions
12:53 AM 39.0 °F 32.3 °F 14.0 °F 36% 29.95 in 10.0 mi West 10.4 mph 16.1 mph N/A   Clear
1:53 AM 33.1 °F 26.9 °F 16.0 °F 50% 29.99 in 10.0 mi NNW 6.9 mph - N/A   Mostly Cloudy
2:53 AM 35.1 °F 32.2 °F 17.1 °F 48% 30.01 in 10.0 mi WNW 3.5 mph - N/A   Overcast
3:53 AM 33.1 °F 26.9 °F 24.1 °F 70% 30.04 in 7.0 mi North 6.9 mph - 0.00 in Snow Light Snow
4:53 AM 32.0 °F 24.8 °F 23.0 °F 69% 30.07 in 10.0 mi WNW 8.1 mph - 0.00 in   Mostly Cloudy
5:53 AM 32.0 °F 23.0 °F 19.9 °F 61% 30.13 in 10.0 mi NW 11.5 mph 21.9 mph N/A   Scattered Clouds
6:53 AM 30.0 °F - 19.0 °F 64% 30.18 in 10.0 mi Calm Calm - N/A   Mostly Cloudy
7:53 AM 30.9 °F - 19.0 °F 61% 30.22 in 10.0 mi Calm Calm - N/A   Overcast
8:53 AM 30.0 °F 23.2 °F 19.0 °F 64% 30.24 in 10.0 mi WNW 6.9 mph - N/A   Overcast
9:53 AM 28.9 °F 21.1 °F 21.9 °F 75% 30.25 in 4.0 mi NW 8.1 mph - 0.00 in Snow Light Snow
10:04 AM 28.4 °F 22.2 °F 21.2 °F 74% 30.17 in 2.0 mi WNW 5.8 mph - 0.00 in Snow Light Snow
10:19 AM 28.4 °F 23.3 °F 21.2 °F 74% 30.18 in 8.0 mi West 4.6 mph - 0.00 in Snow Light Snow
10:53 AM 28.9 °F 22.8 °F 21.9 °F 75% 30.27 in 7.0 mi NW 5.8 mph - 0.00 in Snow Light Snow
11:09 AM 28.4 °F 20.4 °F 21.2 °F 74% 30.20 in 1.5 mi North 8.1 mph - 0.00 in Snow Light Snow
11:16 AM 28.4 °F 19.7 °F 21.2 °F 74% 30.20 in 1.0 mi NW 9.2 mph - 0.00 in Snow Light Snow
11:29 AM 28.4 °F 19.7 °F 21.2 °F 74% 30.20 in 3.0 mi NNW 9.2 mph - 0.00 in Snow Light Snow
11:40 AM 28.4 °F 19.7 °F 21.2 °F 74% 30.19 in 4.0 mi NW 9.2 mph - 0.00 in Snow Light Snow
11:53 AM 28.9 °F 21.9 °F 21.9 °F 75% 30.29 in 8.0 mi NW 6.9 mph - 0.00 in   Overcast
12:53 PM 30.0 °F 26.5 °F 21.0 °F 69% 30.24 in 10.0 mi NNW 3.5 mph - N/A   Overcast
1:53 PM 30.0 °F 24.1 °F 19.0 °F 64% 30.26 in 10.0 mi West 5.8 mph - N/A   Overcast
2:53 PM 30.0 °F 23.2 °F 19.9 °F 66% 30.25 in 10.0 mi WNW 6.9 mph - N/A   Overcast
3:53 PM 30.0 °F 25.2 °F 19.0 °F 64% 30.28 in 10.0 mi WNW 4.6 mph - N/A   Overcast
4:53 PM 28.0 °F 24.2 °F 19.9 °F 72% 30.30 in 10.0 mi NW 3.5 mph - N/A   Overcast
5:53 PM 27.0 °F - 19.0 °F 72% 30.32 in 10.0 mi Calm Calm - N/A   Overcast
6:53 PM 27.0 °F 23.0 °F 18.0 °F 69% 30.34 in 10.0 mi North 3.5 mph - N/A   Overcast
7:53 PM 21.9 °F - 16.0 °F 78% 30.37 in 10.0 mi Calm Calm - N/A   Partly Cloudy
8:53 PM 19.9 °F 14.9 °F 15.1 °F 81% 30.39 in 10.0 mi East 3.5 mph - N/A   Partly Cloudy
9:53 PM 18.0 °F - 14.0 °F 84% 30.40 in 10.0 mi Calm Calm - N/A   Scattered Clouds
10:53 PM 15.1 °F - 12.0 °F 88% 30.42 in 10.0 mi Calm Calm - N/A   Overcast
11:53 PM 17.1 °F - 12.9 °F 84% 30.41 in 10.0 mi Calm Calm - N/A   Overcast